Hourly Data Report for June 21, 2003

TORONTO CITY
ONTARIO

43°40'00.000" N
79°24'00.000" W
112.50 m
6158355
71508
XTO

Download Data

Hourly Data (June 2003)
Hourly Data Report for June 21, 2003
TIME
LST
Temp Definition
°C
Dew Point Definition
°C
Rel Hum Definition
%
Precip. Amount Definition
mm

Wind Dir Definition
10's deg

Wind Spd Definition
km/h
Visibility Definition
km
Stn Press Definition
kPa
Hmdx Definition


Wind Chill Definition


Weather Definition


00:00 17.6 10.5 63   LegendMM LegendMM LegendMM 100.21     LegendNANA
01:00 17.4 10.3 63   LegendMM LegendMM LegendMM 100.16     LegendNANA
02:00 17.3 9.4 60   LegendMM LegendMM LegendMM 100.10     LegendNANA
03:00
04:00 17.1 9.8 62   LegendMM LegendMM LegendMM 100.05     LegendNANA
05:00 17.2 9.8 62   LegendMM LegendMM LegendMM 100.08     LegendNANA
06:00 17.4 10.3 63   LegendMM LegendMM LegendMM 100.12     LegendNANA
07:00 17.3 10.4 64   LegendMM LegendMM LegendMM 100.18     LegendNANA
08:00 16.8 11.7 72   LegendMM LegendMM LegendMM 100.22     LegendNANA
09:00 19.3 11.2 59   LegendMM LegendMM LegendMM 100.22     LegendNANA
10:00 20.1 10.1 53   LegendMM LegendMM LegendMM 100.22     LegendNANA
11:00 21.2 10.3 50   LegendMM LegendMM LegendMM 100.21     LegendNANA
12:00 20.7 10.9 53   LegendMM LegendMM LegendMM 100.18     LegendNANA
13:00 21.0 11.7 55   LegendMM LegendMM LegendMM 100.18     LegendNANA
14:00 21.1 11.5 54   LegendMM LegendMM LegendMM 100.14     LegendNANA
15:00 21.4 11.6 54   LegendMM LegendMM LegendMM 100.09     LegendNANA
16:00 20.3 11.8 58   LegendMM LegendMM LegendMM 100.07     LegendNANA
17:00 20.5 11.4 56   LegendMM LegendMM LegendMM 100.00     LegendNANA
18:00 20.2 9.9 52   LegendMM LegendMM LegendMM 99.95     LegendNANA
19:00 20.3 9.1 49   LegendMM LegendMM LegendMM 99.93     LegendNANA
20:00 19.8 8.2 47   LegendMM LegendMM LegendMM 99.93     LegendNANA
21:00 18.9 9.1 53   LegendMM LegendMM LegendMM 99.95     LegendNANA
22:00 17.5 9.7 60   LegendMM LegendMM LegendMM 99.92     LegendNANA
23:00 17.1 10.8 66   LegendMM LegendMM LegendMM 99.88     LegendNANA

Notes on Data Quality.

Legend

  • E = Estimated
  • M = Missing
  • NA = Not Available*
  • [empty] = Indicates an unobserved value
Date modified: